Retour au catalogue

FREGAT DEB

LostUNKNOWN
NORAD 46526·DEBRIS·🇷🇺 Russia

Lancé Jul 18, 2011 depuis Baikonur Cosmodrome

Loading…

Prochains Passages (prochaines 24 heures)

TLE

PériméSource: Space-Track

Époque: Nov 5, 2020, 19:03 UTC

1 46526U 11037ME  20310.79404301 -.00000228  00000-0 -51572-3 0  9996
2 46526  51.4790  99.7878 2182855 236.7045 100.5682  9.95317613 10509

Suivez FREGAT DEB en temps réel avec AllMySat

Download on the App Store